Location: Newark
(42.8481°N, 0.4872°E)
Time: 12:55:28
(UTC+00:00)

A-11 Canister half - Pass Details

Date: 27 October 2020
Orbit: 1525 x 1684 km, 47.3° (Epoch: 01 December)

Event Time Altitude Azimuth Distance (km) Brightness Sun altitude
Rises 22:55:38 0° 288° (WNW) 4,677 11.8 -58.7°
Enters shadow 22:57:51 - 280° (W) 4,159 11.4 -58.9°
Reaches altitude 10° 23:00:14 10° 269° (W) 3,694 - -59.0°
Maximum altitude 23:05:12 16° 235° (SW) 3,259 - -59.3°
Drops below altitude 10° 23:10:13 10° 202° (SSW) 3,719 - -59.6°
Sets 23:14:56 0° 182° (S) 4,723 - -59.8°
